Total_Precipitation_Accumulation
0.01 0.00 0.01 0.01 0.02 0.01 0.01 0.03 0.05 0.07 0.08 0.08 0.08 0.07 0.07 0.09 0.09 0.08 0.06 0.06 0.10 0.18 0.24 0.26 0.25 0.28 0.28 0.27 0.22 0.15 0.11 0.07 0.05 0.04 0.03 0.03 0.06 0.09 0.12 0.09 0.07 0.07 0.02
0.01 0.00 0.00 0.01 0.02 0.02 0.02 0.04 0.05 0.06 0.06 0.07 0.07 0.06 0.07 0.07 0.08 0.10 0.09 0.09 0.14 0.19 0.21 0.23 0.24 0.23 0.21 0.18 0.14 0.09 0.05 0.03 0.02 0.03 0.04 0.10 0.20 0.21 0.20 0.17 0.16 0.13 0.02
0.00 0.00 0.00 0.01 0.02 0.02 0.02 0.03 0.05 0.06 0.06 0.06 0.07 0.07 0.08 0.08 0.08 0.10 0.11 0.12 0.17 0.19 0.16 0.16 0.18 0.16 0.13 0.07 0.04 0.02 0.01 0.01 0.01 0.04 0.16 0.34 0.44 0.31 0.21 0.19 0.19 0.13 0.04
0.00 0.00 0.00 0.01 0.02 0.01 0.01 0.02 0.03 0.04 0.06 0.08 0.10 0.08 0.08 0.08 0.08 0.09 0.10 0.12 0.15 0.15 0.13 0.11 0.11 0.09 0.05 0.02 0.02 0.01 0.00 0.00 0.01 0.08 0.27 0.45 0.65 0.52 0.30 0.22 0.22 0.19 0.15
0.01 0.01 0.00 0.00 0.01 0.01 0.01 0.01 0.03 0.05 0.06 0.07 0.10 0.11 0.09 0.07 0.06 0.08 0.13 0.16 0.19 0.18 0.18 0.18 0.14 0.07 0.04 0.03 0.02 0.02 0.01 0.01 0.04 0.13 0.35 0.61 0.81 0.69 0.41 0.27 0.27 0.28 0.28
0.01 0.00 0.00 0.01 0.01 0.01 0.01 0.01 0.03 0.06 0.07 0.07 0.08 0.10 0.10 0.08 0.06 0.11 0.19 0.23 0.23 0.22 0.26 0.31 0.25 0.16 0.08 0.04 0.02 0.02 0.02 0.02 0.05 0.18 0.44 0.67 0.74 0.58 0.36 0.26 0.23 0.29 0.35
0.01 0.00 0.00 0.01 0.01 0.01 0.01 0.02 0.05 0.07 0.08 0.10 0.09 0.10 0.12 0.08 0.06 0.12 0.21 0.27 0.27 0.26 0.26 0.23 0.17 0.13 0.10 0.06 0.04 0.03 0.02 0.03 0.08 0.23 0.49 0.64 0.57 0.36 0.24 0.20 0.18 0.20 0.24
0.01 0.00 0.00 0.00 0.01 0.02 0.02 0.04 0.07 0.06 0.07 0.09 0.08 0.11 0.11 0.07 0.05 0.10 0.19 0.27 0.33 0.29 0.21 0.16 0.12 0.09 0.08 0.06 0.05 0.03 0.04 0.05 0.07 0.18 0.34 0.36 0.33 0.18 0.14 0.14 0.14 0.13 0.13
0.05 0.04 0.03 0.01 0.01 0.02 0.02 0.03 0.04 0.04 0.04 0.05 0.05 0.07 0.09 0.08 0.06 0.10 0.17 0.23 0.22 0.15 0.12 0.11 0.09 0.07 0.04 0.03 0.02 0.03 0.04 0.05 0.07 0.10 0.14 0.14 0.15 0.09 0.07 0.06 0.06 0.06 0.06
0.30 0.53 0.33 0.07 0.02 0.01 0.01 0.01 0.02 0.01 0.01 0.01 0.01 0.03 0.05 0.06 0.08 0.11 0.14 0.12 0.09 0.05 0.03 0.03 0.03 0.02 0.02 0.01 0.01 0.01 0.02 0.02 0.03 0.05 0.07 0.06 0.06 0.04 0.04 0.03 0.02 0.02 0.02
0.52 0.73 0.33 0.11 0.03 0.01 0.00 0.00 0.01 0.01 0.01 0.01 0.02 0.03 0.05 0.12 0.16 0.17 0.11 0.09 0.05 0.02 0.01 0.01 0.01 0.01 0.01 0.00 0.00 0.00 0.00 0.00 0.01 0.03 0.05 0.08 0.08 0.05 0.03 0.02 0.02 0.01 0.01
0.36 0.28 0.16 0.08 0.02 0.01 0.01 0.01 0.01 0.01 0.01 0.02 0.04 0.05 0.11 0.21 0.25 0.18 0.11 0.06 0.03 0.01 0.01 0.00 0.00 0.00 0.00 0.00 0.01 0.00 0.00 0.00 0.01 0.02 0.01 0.01 0.02 0.02 0.02 0.03 0.02 0.01 0.01
0.35 0.13 0.07 0.06 0.04 0.02 0.00 0.01 0.01 0.01 0.02 0.02 0.04 0.06 0.12 0.13 0.10 0.08 0.08 0.05 0.03 0.01 0.02 0.02 0.01 0.01 0.00 0.01 0.01 0.01 0.00 0.00 0.01 0.01 0.00 0.00 0.01 0.01 0.02 0.02 0.02 0.02 0.02
0.23 0.13 0.07 0.07 0.05 0.03 0.01 0.01 0.02 0.02 0.02 0.03 0.04 0.04 0.09 0.11 0.09 0.08 0.09 0.09 0.08 0.07 0.07 0.07 0.04 0.02 0.01 0.01 0.01 0.01 0.01 0.01 0.00 0.00 0.00 0.00 0.00 0.01 0.02 0.03 0.03 0.03 0.03
0.19 0.12 0.11 0.10 0.05 0.03 0.01 0.01 0.01 0.01 0.02 0.03 0.04 0.04 0.05 0.07 0.07 0.07 0.07 0.07 0.07 0.10 0.12 0.11 0.09 0.03 0.02 0.01 0.01 0.03 0.03 0.01 0.01 0.02 0.01 0.01 0.01 0.02 0.04 0.04 0.04 0.05 0.05
0.17 0.14 0.14 0.10 0.03 0.02 0.01 0.01 0.01 0.01 0.03 0.05 0.04 0.04 0.03 0.05 0.07 0.09 0.10 0.12 0.08 0.08 0.10 0.10 0.10 0.06 0.03 0.02 0.02 0.03 0.05 0.02 0.02 0.02 0.01 0.02 0.03 0.03 0.04 0.06 0.07 0.08 0.08
0.22 0.19 0.19 0.08 0.03 0.02 0.01 0.01 0.02 0.03 0.05 0.06 0.06 0.05 0.04 0.05 0.08 0.10 0.15 0.17 0.14 0.11 0.10 0.10 0.09 0.10 0.08 0.07 0.07 0.07 0.06 0.05 0.05 0.04 0.04 0.03 0.05 0.06 0.08 0.09 0.09 0.09 0.08
0.31 0.43 0.37 0.12 0.05 0.04 0.04 0.03 0.03 0.04 0.05 0.06 0.07 0.07 0.09 0.11 0.14 0.18 0.23 0.24 0.24 0.21 0.21 0.22 0.21 0.19 0.18 0.16 0.15 0.14 0.13 0.11 0.09 0.07 0.06 0.05 0.05 0.05 0.06 0.07 0.07 0.07 0.08
0.53 0.86 0.64 0.19 0.08 0.07 0.07 0.07 0.08 0.11 0.15 0.18 0.20 0.20 0.22 0.21 0.22 0.28 0.32 0.35 0.36 0.37 0.38 0.37 0.39 0.37 0.36 0.33 0.26 0.22 0.18 0.14 0.13 0.10 0.08 0.07 0.06 0.05 0.04 0.04 0.05 0.06 0.07
0.95 1.40 0.93 0.36 0.18 0.13 0.13 0.16 0.21 0.26 0.35 0.42 0.40 0.36 0.35 0.36 0.39 0.45 0.48 0.55 0.57 0.58 0.58 0.57 0.54 0.48 0.42 0.36 0.28 0.21 0.18 0.14 0.11 0.09 0.07 0.05 0.05 0.04 0.03 0.03 0.03 0.04 0.07
0.90 1.10 0.81 0.50 0.35 0.28 0.34 0.42 0.53 0.63 0.71 0.72 0.71 0.72 0.77 0.81 0.82 0.79 0.77 0.77 0.72 0.68 0.64 0.57 0.51 0.46 0.42 0.35 0.28 0.20 0.13 0.08 0.07 0.05 0.04 0.03 0.02 0.02 0.02 0.01 0.02 0.02 0.03
0.59 0.63 0.63 0.59 0.59 0.51 0.59 0.73 0.93 1.11 1.17 1.20 1.30 1.42 1.50 1.41 1.24 1.13 1.02 0.86 0.75 0.68 0.64 0.58 0.52 0.46 0.38 0.29 0.24 0.21 0.14 0.08 0.04 0.03 0.03 0.02 0.01 0.01 0.01 0.01 0.01 0.01 0.00
0.45 0.53 0.60 0.67 0.76 0.77 0.91 1.08 1.30 1.51 1.68 1.78 1.84 1.83 1.72 1.52 1.36 1.21 1.02 0.88 0.78 0.71 0.69 0.64 0.54 0.46 0.36 0.25 0.19 0.17 0.15 0.09 0.04 0.02 0.02 0.01 0.01 0.01 0.00 0.00 0.01 0.00 0.00
0.43 0.52 0.58 0.72 0.88 1.06 1.24 1.39 1.62 1.87 2.00 1.96 1.73 1.56 1.36 1.17 1.02 0.88 0.79 0.75 0.73 0.70 0.64 0.52 0.40 0.32 0.25 0.17 0.12 0.09 0.08 0.06 0.06 0.04 0.01 0.01 0.01 0.00 0.00 0.00 0.00 0.00 0.00
0.44 0.53 0.66 0.82 0.99 1.24 1.50 1.70 1.88 1.95 1.83 1.60 1.36 1.13 1.02 0.91 0.78 0.69 0.64 0.62 0.58 0.48 0.38 0.28 0.22 0.18 0.13 0.09 0.06 0.05 0.04 0.04 0.04 0.05 0.03 0.01 0.01 0.00 0.00 0.00 0.00 0.00 0.00
0.39 0.53 0.69 0.86 1.05 1.29 1.55 1.76 1.80 1.74 1.60 1.37 1.11 0.95 0.85 0.72 0.59 0.49 0.40 0.33 0.27 0.21 0.16 0.11 0.08 0.06 0.05 0.05 0.05 0.04 0.05 0.05 0.05 0.06 0.06 0.04 0.02 0.01 0.01 0.01 0.01 0.01 0.01